Flag for United Kingdom Weather past 2 weeks in Edinburgh, Scotland, United Kingdom

Now
34 °F

Scattered showers. Passing clouds.


Feels Like: 22 °F
Forecast: N/A
Wind: 20 mph from Southwest

Location: Edinburgh Airport

Current Time: Jan 28, 2015 at 6:55:31 PM

Latest Report: Jan 28, 2015 at 6:20 PM


Visibility: N/A

Pressure: 29.15 "Hg

Humidity: 87%

Dew point: 30 °F

Location of EdinburghLocation

Historic Weather in Edinburgh — Graph

°F

Edinburgh temperature yesterday

Maximum temperature yesterday: 46 °F (at 10:20 AM)
Minimum temperature yesterday: 39 °F (at 12:20 AM)
Average temperature yesterday: 44 °F

Past Weeks' High & Low Weather Summary

 TemperatureHumidityPressure
High50 °F (Jan 25, 3:50 PM)100% (Jan 17, 8:50 AM)30.27 "Hg (Jan 17, 8:50 AM)
Low19 °F (Jan 21, 4:50 AM)56% (Jan 18, 2:20 PM)28.44 "Hg (Jan 15, 1:20 PM)
Average37 °F85%29.71 "Hg
* Reported Jan 13 5:20 PM — Jan 28 5:50 PM, Edinburgh, Weather by CustomWeather, © 2014

Note: Actual official high and low records may vary slightly from our data, if they occured in-between our weather recording intervals... More about our weather records

Advertising

Edinburgh weather history for previous 24 hours

 ConditionsComfort  
Time TempWeatherWind HumidityBarometerVisibility
5:50 PM
Jan 28
34 °FPassing clouds.17 mph87%29.15 "HgN/A
5:20 PM36 °FPassing clouds.14 mph75%29.18 "HgN/A
4:50 PM36 °FPassing clouds.17 mph75%29.18 "HgN/A
4:20 PM36 °FPassing clouds.17 mph87%29.18 "HgN/A
3:50 PM36 °FScattered showers. Scattered clouds.15 mph81%29.18 "HgN/A
3:20 PM36 °FSnow showers. Partly sunny.17 mph81%29.21 "Hg1 mi
2:50 PM37 °FPassing clouds.10 mph81%29.21 "HgN/A
2:20 PM36 °FSnow showers. Broken clouds.18 mph87%29.21 "Hg2 mi
1:50 PM37 °FScattered clouds.18 mph81%29.18 "HgN/A
1:20 PM36 °FSprinkles. Broken clouds.16 mph87%29.18 "HgN/A
12:50 PM36 °FScattered clouds.15 mph93%29.18 "Hg5 mi
12:20 PM36 °FScattered showers. Broken clouds.16 mph93%29.18 "HgN/A
11:50 AM36 °FScattered clouds.10 mph93%29.18 "HgN/A
11:20 AM36 °FSnow flurries. Broken clouds.14 mph93%29.21 "Hg5 mi
10:50 AM36 °FScattered showers. Scattered clouds.17 mph87%29.18 "HgN/A
10:20 AM37 °FSnow flurries. Broken clouds.17 mph81%29.21 "Hg4 mi
9:50 AM37 °FMixture of precip. Scattered clouds.16 mph81%29.21 "HgN/A
9:20 AM37 °FPassing clouds.17 mph87%29.21 "HgN/A
8:50 AM36 °FPassing clouds.18 mph93%29.21 "HgN/A
8:20 AM37 °FLight rain. Scattered clouds.18 mph87%29.21 "HgN/A
7:50 AM39 °FSprinkles. Partly cloudy.24 mph81%29.21 "HgN/A
7:20 AM41 °FPassing clouds.17 mph81%29.21 "HgN/A
6:50 AM41 °FLight rain. Partly cloudy.24 mph87%29.21 "HgN/A
6:20 AM43 °FLight rain. Partly cloudy.18 mph93%29.21 "HgN/A
5:50 AM45 °FLight rain. Passing clouds.18 mph87%29.24 "HgN/A
5:20 AM46 °FRain. Mostly cloudy.22 mph87%29.27 "Hg4 mi
4:50 AM46 °FLight rain. Overcast.23 mph87%29.27 "Hg6 mi
4:20 AM46 °FLight rain. Passing clouds.24 mph87%29.33 "HgN/A
3:50 AM46 °FLight rain. Mostly cloudy.23 mph87%29.36 "HgN/A
3:20 AM46 °FLight rain. Passing clouds.21 mph87%29.42 "HgN/A
2:50 AM46 °FLight rain. Passing clouds.21 mph87%29.45 "HgN/A
2:20 AM45 °FLight rain. Overcast.21 mph93%29.50 "HgN/A
1:50 AM45 °FLight rain. Passing clouds.20 mph93%29.53 "HgN/A
1:20 AM45 °FLight rain. Passing clouds.20 mph93%29.56 "HgN/A
12:50 AM45 °FLight rain. Mostly cloudy.18 mph93%29.59 "HgN/A
12:20 AM45 °FLight rain. Mostly cloudy.23 mph93%29.62 "HgN/A
11:50 PM
Jan 27
45 °FLight rain. Mostly cloudy.17 mph87%29.65 "HgN/A
11:20 PM45 °FPartly cloudy.16 mph87%29.65 "HgN/A
10:50 PM45 °FOvercast.18 mph87%29.71 "HgN/A
10:20 PM43 °FLight rain. Passing clouds.20 mph87%29.74 "HgN/A
9:50 PM45 °FPassing clouds.18 mph81%29.80 "HgN/A
9:20 PM45 °FPassing clouds.25 mph81%29.80 "HgN/A
8:50 PM45 °FPassing clouds.18 mph81%29.83 "HgN/A
8:20 PM45 °FPassing clouds.16 mph81%29.86 "HgN/A
7:50 PM45 °FPassing clouds.16 mph81%29.89 "HgN/A
7:20 PM45 °FPassing clouds.20 mph87%29.92 "HgN/A
6:50 PM45 °FPassing clouds.16 mph87%29.95 "HgN/A
6:20 PM45 °FPassing clouds.18 mph81%29.95 "HgN/A
Weather by CustomWeather, © 2014

See weather overviewHow to use our weather pages